| time (UTC) | temp F | wind direction | speed knots | gust knots | rain 1hr in | rain 24hr in | rain mn in | humidity % | barometer mb |
| 20260502195037 | 63 | 45 | 4.3 | 6.1 | 0.00 | 0.00 | 0.00 | 84 | 1019.6 |
| 20260502194537 | 63 | 52 | 4.3 | 6.1 | 0.00 | 0.00 | 0.00 | 83 | 1019.5 |
| 20260502194037 | 63 | 36 | 4.3 | 6.1 | 0.00 | 0.00 | 0.00 | 83 | 1019.6 |
| 20260502193537 | 63 | 58 | 4.3 | 6.1 | 0.00 | 0.00 | 0.00 | 83 | 1019.6 |
| 20260502193036 | 64 | 56 | 4.3 | 6.1 | 0.00 | 0.00 | 0.00 | 83 | 1019.5 |
| 20260502192537 | 64 | 56 | 3.5 | 5.2 | 0.00 | 0.00 | 0.00 | 83 | 1019.6 |
| 20260502192038 | 64 | 60 | 3.5 | 5.2 | 0.00 | 0.00 | 0.00 | 83 | 1019.6 |
| 20260502191537 | 64 | 68 | 3.5 | 4.3 | 0.00 | 0.00 | 0.00 | 83 | 1019.7 |
| 20260502191038 | 64 | 67 | 2.6 | 4.3 | 0.00 | 0.00 | 0.00 | 83 | 1019.7 |
| 20260502190537 | 64 | 70 | 2.6 | 4.3 | 0.00 | 0.00 | 0.00 | 83 | 1019.7 |
| 20260502190038 | 64 | 48 | 2.6 | 4.3 | 0.00 | 0.00 | 0.00 | 83 | 1019.7 |
| 20260502185537 | 64 | 53 | 3.5 | 5.2 | 0.00 | 0.00 | 0.00 | 83 | 1019.8 |
| 20260502185038 | 64 | 60 | 4.3 | 5.2 | 0.00 | 0.00 | 0.00 | 83 | 1019.5 |
| 20260502184537 | 64 | 63 | 3.5 | 4.3 | 0.00 | 0.00 | 0.00 | 83 | 1019.6 |
| 20260502184037 | 64 | 61 | 1.7 | 3.5 | 0.00 | 0.00 | 0.00 | 83 | 1019.7 |
| 20260502183537 | 64 | 63 | 2.6 | 4.3 | 0.00 | 0.00 | 0.00 | 83 | 1019.7 |
| 20260502183349 | 64 | 68 | 2.6 | 6.1 | 0.00 | 0.00 | 0.00 | 82 | 1019.7 |
| 20260502182821 | 64 | 71 | 5.2 | 6.1 | 0.00 | 0.00 | 0.00 | 83 | 1019.5 |
| 20260502182037 | 64 | 68 | 2.6 | 6.1 | 0.00 | 0.00 | 0.00 | 83 | 1019.5 |
| 20260502181537 | 64 | 63 | 4.3 | 7.0 | 0.00 | 0.00 | 0.00 | 83 | 1019.6 |
| 20260502181037 | 64 | 42 | 5.2 | 7.0 | 0.00 | 0.00 | 0.00 | 83 | 1019.5 |
| 20260502180537 | 64 | 62 | 4.3 | 7.8 | 0.00 | 0.00 | 0.00 | 84 | 1019.5 |
| 20260502164037 | 65 | 63 | 4.3 | 7.8 | 0.00 | 0.00 | 0.00 | 82 | 1020.4 |
| 20260502163536 | 65 | 97 | 5.2 | 8.7 | 0.00 | 0.00 | 0.00 | 82 | 1020.5 |
| 20260502163036 | 65 | 103 | 5.2 | 8.7 | 0.00 | 0.00 | 0.00 | 81 | 1020.3 |
| 20260502162536 | 65 | 91 | 6.1 | 7.8 | 0.00 | 0.00 | 0.00 | 82 | 1020.5 |
| 20260502162036 | 65 | 102 | 6.1 | 7.8 | 0.00 | 0.00 | 0.00 | 81 | 1020.5 |
| 20260502161536 | 65 | 73 | 2.6 | 7.0 | 0.00 | 0.00 | 0.00 | 82 | 1020.6 |
| 20260502161037 | 65 | 106 | 3.5 | 7.0 | 0.00 | 0.00 | 0.00 | 81 | 1020.7 |
| 20260502160537 | 65 | 174 | 4.3 | 7.0 | 0.00 | 0.00 | 0.00 | 82 | 1020.8 |
| 20260502152037 | 65 | 96 | 7.0 | 9.6 | 0.00 | 0.00 | 0.00 | 81 | 1020.9 |
| 20260502151537 | 65 | 128 | 6.1 | 9.6 | 0.00 | 0.00 | 0.00 | 81 | 1021.1 |
| 20260502151043 | 65 | 92 | 6.1 | 9.6 | 0.00 | 0.00 | 0.00 | 80 | 1021.2 |
| 20260502150536 | 66 | 113 | 6.1 | 9.6 | 0.00 | 0.00 | 0.00 | 80 | 1021.2 |
| 20260502123537 | 66 | 75 | 7.8 | 11.3 | 0.00 | 0.00 | 0.00 | 83 | 1022.6 |
| 20260502123037 | 66 | 87 | 6.1 | 11.3 | 0.00 | 0.00 | 0.00 | 83 | 1022.6 |
| 20260502122537 | 65 | 111 | 7.8 | 10.4 | 0.00 | 0.00 | 0.00 | 83 | 1022.7 |
| 20260502122037 | 65 | 135 | 7.8 | 11.3 | 0.00 | 0.00 | 0.00 | 84 | 1022.7 |
| 20260502121536 | 65 | 101 | 7.8 | 11.3 | 0.00 | 0.00 | 0.00 | 85 | 1022.7 |
| 20260502121037 | 65 | 109 | 7.8 | 10.4 | 0.00 | 0.00 | 0.00 | 84 | 1022.7 |
| 20260502120536 | 65 | 123 | 6.1 | 10.4 | 0.00 | 0.00 | 0.00 | 84 | 1022.7 |
| 20260502115536 | 65 | 60 | 7.8 | 12.2 | 0.00 | 0.00 | 0.00 | 84 | 1022.6 |
| 20260502115320 | 65 | 99 | 7.8 | 12.2 | 0.00 | 0.00 | 0.00 | 84 | 1022.7 |
| 20260502114536 | 65 | 93 | 7.8 | 12.2 | 0.00 | 0.00 | 0.00 | 84 | 1022.7 |
| 20260502114034 | 65 | 148 | 8.7 | 12.2 | 0.00 | 0.00 | 0.00 | 84 | 1022.8 |
| 20260502113814 | 65 | 108 | 9.6 | 13.0 | 0.00 | 0.00 | 0.00 | 84 | 1022.8 |
| 20260502113035 | 65 | 114 | 6.1 | 13.0 | 0.00 | 0.00 | 0.00 | 84 | 1022.8 |
| 20260502112535 | 65 | 115 | 8.7 | 13.0 | 0.00 | 0.00 | 0.00 | 84 | 1022.8 |
| 20260502112035 | 65 | 94 | 7.8 | 13.0 | 0.00 | 0.00 | 0.00 | 83 | 1022.7 |
| 20260502111535 | 65 | 49 | 7.0 | 11.3 | 0.00 | 0.00 | 0.00 | 84 | 1022.7 |
| 20260502111035 | 66 | 70 | 6.1 | 13.0 | 0.00 | 0.00 | 0.00 | 83 | 1022.8 |
| 20260502110535 | 65 | 98 | 7.8 | 13.0 | 0.00 | 0.00 | 0.00 | 84 | 1022.9 |
| 20260502110312 | 65 | 99 | 7.8 | 12.2 | 0.00 | 0.00 | 0.00 | 84 | 1022.9 |
| 20260502105535 | 65 | 81 | 7.8 | 11.3 | 0.00 | 0.00 | 0.00 | 83 | 1023.0 |
| 20260502105035 | 65 | 103 | 7.8 | 10.4 | 0.00 | 0.00 | 0.00 | 83 | 1023.1 |
| 20260502104823 | 65 | 89 | 6.1 | 11.3 | 0.00 | 0.00 | 0.00 | 83 | 1023.2 |
| 20260502104035 | 65 | 86 | 7.8 | 11.3 | 0.00 | 0.00 | 0.00 | 83 | 1023.3 |
| 20260502103535 | 65 | 114 | 6.1 | 11.3 | 0.00 | 0.00 | 0.00 | 82 | 1023.2 |
| 20260502103037 | 65 | 100 | 7.8 | 11.3 | 0.00 | 0.00 | 0.00 | 82 | 1023.1 |
| 20260502102536 | 66 | 104 | 7.8 | 11.3 | 0.00 | 0.00 | 0.00 | 82 | 1023.1 |
| 20260502102034 | 65 | 86 | 7.0 | 12.2 | 0.00 | 0.00 | 0.00 | 82 | 1023.1 |
| 20260502101535 | 65 | 103 | 7.0 | 12.2 | 0.00 | 0.00 | 0.00 | 81 | 1023.1 |
| 20260502101035 | 65 | 87 | 7.8 | 11.3 | 0.00 | 0.00 | 0.00 | 81 | 1023.1 |
| 20260502100539 | 66 | 112 | 5.2 | 9.6 | 0.00 | 0.00 | 0.00 | 81 | 1023.3 |
| 20260502100316 | 66 | 101 | 7.0 | 9.6 | 0.00 | 0.00 | 0.00 | 81 | 1023.3 |
| 20260502091035 | 65 | 91 | 5.2 | 7.0 | 0.00 | 0.00 | 0.00 | 83 | 1023.5 |
| 20260502090535 | 65 | 111 | 3.5 | 7.8 | 0.00 | 0.00 | 0.00 | 84 | 1023.6 |
| 20260502071314 | 64 | 84 | 4.3 | 6.1 | 0.00 | 0.00 | 0.00 | 80 | 1023.6 |
| 20260502070537 | 64 | 79 | 3.5 | 5.2 | 0.00 | 0.00 | 0.00 | 79 | 1023.6 |
| 20260502070037 | 64 | 100 | 3.5 | 3.5 | 0.00 | 0.00 | 0.00 | 79 | 1023.7 |
| 20260502065826 | 64 | 69 | 1.7 | 5.2 | 0.00 | 0.00 | 0.00 | 79 | 1023.6 |
| 20260502065318 | 64 | 46 | 2.6 | 6.1 | 0.00 | 0.00 | 0.00 | 79 | 1023.5 |
| 20260502064544 | 64 | 75 | 4.3 | 7.0 | 0.00 | 0.00 | 0.00 | 79 | 1023.5 |
| 20260502064037 | 64 | 56 | 3.5 | 7.0 | 0.00 | 0.00 | 0.00 | 79 | 1023.4 |
| 20260502063539 | 64 | 84 | 3.5 | 6.1 | 0.00 | 0.00 | 0.00 | 79 | 1023.4 |
| 20260502063036 | 64 | 59 | 5.2 | 7.0 | 0.00 | 0.00 | 0.00 | 79 | 1023.4 |
| 20260502062612 | 64 | 64 | 5.2 | 6.1 | 0.00 | 0.00 | 0.00 | 79 | 1023.4 |
| 20260502062600 | 64 | 68 | 4.3 | 7.0 | 0.00 | 0.00 | 0.00 | 79 | 1023.4 |
| 20260502061536 | 64 | 65 | 3.5 | 6.1 | 0.00 | 0.00 | 0.00 | 80 | 1023.4 |
| 20260502061035 | 64 | 70 | 5.2 | 6.1 | 0.00 | 0.00 | 0.00 | 80 | 1023.3 |
| 20260502060534 | 63 | 75 | 3.5 | 6.1 | 0.00 | 0.00 | 0.00 | 80 | 1023.3 |
| 20260502060035 | 63 | 89 | 4.3 | 6.1 | 0.00 | 0.00 | 0.00 | 80 | 1023.3 |
| 20260502055537 | 63 | 61 | 3.5 | 5.2 | 0.00 | 0.00 | 0.00 | 81 | 1023.3 |
| 20260502055036 | 63 | 75 | 3.5 | 5.2 | 0.00 | 0.00 | 0.00 | 81 | 1023.3 |
| 20260502054536 | 63 | 62 | 3.5 | 5.2 | 0.00 | 0.00 | 0.00 | 81 | 1023.3 |
| 20260502054036 | 63 | 54 | 3.5 | 5.2 | 0.00 | 0.00 | 0.00 | 81 | 1023.3 |
| 20260502053535 | 63 | 54 | 3.5 | 6.1 | 0.00 | 0.00 | 0.00 | 81 | 1023.3 |
| 20260502053035 | 63 | 57 | 4.3 | 6.1 | 0.00 | 0.00 | 0.00 | 81 | 1023.2 |
| 20260502052535 | 63 | 53 | 3.5 | 7.0 | 0.00 | 0.00 | 0.00 | 81 | 1023.2 |
| 20260502052036 | 63 | 41 | 5.2 | 7.0 | 0.00 | 0.00 | 0.00 | 81 | 1023.1 |
| 20260502051536 | 63 | 53 | 4.3 | 7.8 | 0.00 | 0.00 | 0.00 | 82 | 1023.1 |
| 20260502051036 | 63 | 65 | 6.1 | 7.8 | 0.00 | 0.00 | 0.00 | 81 | 1023.2 |
| 20260502050627 | 63 | 60 | 2.6 | 6.1 | 0.00 | 0.00 | 0.00 | 82 | 1023.1 |
| 20260502050616 | 63 | 77 | 2.6 | 5.2 | 0.00 | 0.00 | 0.00 | 82 | 1023.1 |
| 20260502045535 | 63 | 56 | 3.5 | 6.1 | 0.00 | 0.00 | 0.00 | 82 | 1023.1 |
| 20260502045039 | 63 | 63 | 3.5 | 5.2 | 0.00 | 0.00 | 0.00 | 82 | 1023.1 |
| 20260502044535 | 63 | 66 | 4.3 | 5.2 | 0.00 | 0.00 | 0.00 | 82 | 1023.1 |
| 20260502044035 | 64 | 75 | 3.5 | 5.2 | 0.00 | 0.00 | 0.00 | 82 | 1023.0 |
| 20260502043535 | 64 | 59 | 3.5 | 7.0 | 0.00 | 0.00 | 0.00 | 81 | 1023.0 |
| 20260502043036 | 64 | 79 | 5.2 | 7.0 | 0.00 | 0.00 | 0.00 | 81 | 1023.0 |
| 20260502042820 | 64 | 68 | 4.3 | 7.0 | 0.00 | 0.00 | 0.00 | 81 | 1023.0 |
| 20260502042035 | 64 | 64 | 5.2 | 7.8 | 0.00 | 0.00 | 0.00 | 81 | 1022.9 |
| 20260502041535 | 64 | 51 | 4.3 | 7.8 | 0.00 | 0.00 | 0.00 | 82 | 1022.9 |
| 20260502041035 | 64 | 64 | 4.3 | 7.8 | 0.00 | 0.00 | 0.00 | 82 | 1022.9 |
| 20260502040535 | 64 | 68 | 5.2 | 7.8 | 0.00 | 0.00 | 0.00 | 82 | 1023.0 |
| 20260502040414 | 64 | 70 | 3.5 | 7.0 | 0.00 | 0.00 | 0.00 | 82 | 1023.1 |
| 20260502040410 | 64 | 60 | 3.5 | 7.0 | 0.00 | 0.00 | 0.00 | 82 | 1023.0 |
| 20260502035036 | 64 | 56 | 5.2 | 7.0 | 0.00 | 0.00 | 0.00 | 82 | 1023.1 |
| 20260502034536 | 64 | 58 | 4.3 | 7.8 | 0.00 | 0.00 | 0.00 | 83 | 1023.1 |
| 20260502034035 | 64 | 57 | 4.3 | 8.7 | 0.00 | 0.00 | 0.00 | 83 | 1023.0 |
| 20260502033535 | 64 | 67 | 6.1 | 8.7 | 0.00 | 0.00 | 0.00 | 82 | 1023.0 |
| 20260502033035 | 64 | 70 | 6.1 | 9.6 | 0.00 | 0.00 | 0.00 | 82 | 1023.0 |
| 20260502032536 | 64 | 51 | 7.0 | 9.6 | 0.00 | 0.00 | 0.00 | 83 | 1023.1 |
| 20260502032309 | 64 | 49 | 6.1 | 8.7 | 0.00 | 0.00 | 0.00 | 83 | 1023.1 |
| 20260502031540 | 64 | 53 | 4.3 | 8.7 | 0.00 | 0.00 | 0.00 | 83 | 1023.2 |
| 20260502031035 | 64 | 66 | 6.1 | 9.6 | 0.00 | 0.00 | 0.00 | 83 | 1023.1 |
| 20260502030537 | 64 | 51 | 6.1 | 9.6 | 0.00 | 0.00 | 0.00 | 83 | 1023.3 |
| 20260502030312 | 64 | 56 | 7.8 | 9.6 | 0.00 | 0.00 | 0.00 | 83 | 1023.3 |
| 20260502025612 | 64 | 67 | 7.0 | 10.4 | 0.00 | 0.00 | 0.00 | 82 | 1023.4 |
| 20260502025601 | 64 | 62 | 6.1 | 10.4 | 0.00 | 0.00 | 0.00 | 83 | 1023.3 |
| 20260502024813 | 64 | 72 | 6.1 | 9.6 | 0.00 | 0.00 | 0.00 | 82 | 1023.4 |
| 20260502024035 | 64 | 65 | 6.1 | 9.6 | 0.00 | 0.00 | 0.00 | 81 | 1023.4 |
| 20260502023850 | 64 | 72 | 6.1 | 8.7 | 0.00 | 0.00 | 0.00 | 80 | 1023.3 |
| 20260502023845 | 64 | 64 | 7.0 | 8.7 | 0.00 | 0.00 | 0.00 | 81 | 1023.3 |
| 20260502022535 | 64 | 66 | 4.3 | 7.8 | 0.00 | 0.00 | 0.00 | 80 | 1023.3 |
| 20260502022035 | 64 | 56 | 5.2 | 8.7 | 0.00 | 0.00 | 0.00 | 80 | 1023.3 |
| 20260502021613 | 64 | 70 | 5.2 | 7.0 | 0.00 | 0.00 | 0.00 | 80 | 1023.4 |
| 20260502021601 | 64 | 64 | 5.2 | 8.7 | 0.00 | 0.00 | 0.00 | 80 | 1023.3 |
| 20260502020536 | 64 | 68 | 4.3 | 7.0 | 0.00 | 0.00 | 0.00 | 80 | 1023.4 |
| 20260502020035 | 64 | 53 | 5.2 | 7.0 | 0.00 | 0.00 | 0.00 | 80 | 1023.3 |
| 20260502015535 | 64 | 58 | 3.5 | 7.0 | 0.00 | 0.00 | 0.00 | 81 | 1023.4 |
| 20260502015035 | 64 | 48 | 5.2 | 10.4 | 0.00 | 0.00 | 0.00 | 81 | 1023.4 |
| 20260502014536 | 64 | 69 | 6.1 | 10.4 | 0.00 | 0.00 | 0.00 | 81 | 1023.3 |
| 20260502014035 | 64 | 48 | 7.0 | 9.6 | 0.00 | 0.00 | 0.00 | 82 | 1023.3 |
| 20260502013610 | 64 | 51 | 7.8 | 10.4 | 0.00 | 0.00 | 0.00 | 82 | 1023.4 |
| 20260502013557 | 64 | 67 | 6.1 | 10.4 | 0.00 | 0.00 | 0.00 | 82 | 1023.4 |
| 20260502012532 | 64 | 60 | 6.1 | 9.6 | 0.00 | 0.00 | 0.00 | 82 | 1023.4 |
| 20260502012034 | 64 | 50 | 7.0 | 9.6 | 0.00 | 0.00 | 0.00 | 81 | 1023.5 |
| 20260502011533 | 64 | 57 | 5.2 | 7.8 | 0.00 | 0.00 | 0.00 | 81 | 1023.6 |
| 20260502011033 | 64 | 79 | 6.1 | 9.6 | 0.00 | 0.00 | 0.00 | 81 | 1023.6 |
| 20260502010532 | 64 | 72 | 7.0 | 9.6 | 0.00 | 0.00 | 0.00 | 80 | 1023.6 |
| 20260502010028 | 64 | 63 | 5.2 | 8.7 | 0.00 | 0.00 | 0.00 | 80 | 1023.7 |
| 20260502005523 | 64 | 70 | 7.0 | 8.7 | 0.00 | 0.00 | 0.00 | 80 | 1023.7 |
| 20260502005022 | 64 | 73 | 3.5 | 5.2 | 0.00 | 0.00 | 0.00 | 80 | 1023.8 |
| 20260502004840 | 64 | 53 | 5.2 | 7.0 | 0.00 | 0.00 | 0.00 | 80 | 1023.9 |
| 20260502004836 | 64 | 65 | 3.5 | 6.1 | 0.00 | 0.00 | 0.00 | 80 | 1023.8 |
| 20260502003524 | 64 | 60 | 5.2 | 7.0 | 0.00 | 0.00 | 0.00 | 79 | 1023.8 |
| 20260502003308 | 64 | 51 | 4.3 | 6.1 | 0.00 | 0.00 | 0.00 | 78 | 1023.9 |
| 20260502002524 | 64 | 64 | 4.3 | 6.1 | 0.00 | 0.00 | 0.00 | 78 | 1024.0 |
| 20260502002023 | 64 | 50 | 5.2 | 7.0 | 0.00 | 0.00 | 0.00 | 77 | 1024.0 |
| 20260502001524 | 64 | 52 | 6.1 | 7.0 | 0.00 | 0.00 | 0.00 | 77 | 1024.1 |
| 20260502001024 | 64 | 70 | 4.3 | 6.1 | 0.00 | 0.00 | 0.00 | 77 | 1024.1 |
| 20260502000521 | 64 | 51 | 3.5 | 5.2 | 0.00 | 0.00 | 0.00 | 76 | 1024.2 |
| 20260502000021 | 64 | 66 | 4.3 | 5.2 | 0.00 | 0.00 | 0.00 | 76 | 1024.3 |
| 20260501235812 | 64 | 70 | 3.5 | 5.2 | 0.00 | 0.00 | 0.00 | 76 | 1024.3 |
| 20260501235305 | 64 | 43 | 3.5 | 5.2 | 0.00 | 0.00 | 0.00 | 76 | 1024.4 |
| 20260501234523 | 64 | 70 | 2.6 | 4.3 | 0.00 | 0.00 | 0.00 | 76 | 1024.5 |
| 20260501234027 | 64 | 64 | 3.5 | 5.2 | 0.00 | 0.00 | 0.00 | 76 | 1024.4 |
| 20260501233812 | 64 | 56 | 3.5 | 5.2 | 0.00 | 0.00 | 0.00 | 76 | 1024.5 |
| 20260501233022 | 64 | 65 | 1.7 | 3.5 | 0.00 | 0.00 | 0.00 | 76 | 1024.4 |
| 20260501232524 | 64 | 64 | 2.6 | 3.5 | 0.00 | 0.00 | 0.00 | 76 | 1024.4 |
| 20260501232021 | 64 | 55 | 1.7 | 4.3 | 0.00 | 0.00 | 0.00 | 76 | 1024.4 |
| 20260501231522 | 64 | 48 | 3.5 | 5.2 | 0.00 | 0.00 | 0.00 | 76 | 1024.4 |
| 20260501231021 | 64 | 49 | 3.5 | 5.2 | 0.00 | 0.00 | 0.00 | 77 | 1024.5 |
| 20260501230521 | 64 | 45 | 4.3 | 5.2 | 0.00 | 0.00 | 0.00 | 78 | 1024.4 |
| 20260501230021 | 64 | 56 | 3.5 | 5.2 | 0.00 | 0.00 | 0.00 | 79 | 1024.5 |
| 20260501225523 | 63 | 53 | 3.5 | 4.3 | 0.00 | 0.00 | 0.00 | 80 | 1024.5 |
| 20260501225309 | 63 | 60 | 3.5 | 5.2 | 0.00 | 0.00 | 0.00 | 81 | 1024.5 |
| 20260501224522 | 63 | 49 | 3.5 | 5.2 | 0.00 | 0.00 | 0.00 | 82 | 1024.5 |
| 20260501224022 | 64 | 65 | 3.5 | 5.2 | 0.00 | 0.00 | 0.00 | 82 | 1024.5 |
| 20260501223521 | 64 | 63 | 3.5 | 5.2 | 0.00 | 0.00 | 0.00 | 82 | 1024.5 |
| 20260501223021 | 64 | 69 | 3.5 | 6.1 | 0.00 | 0.00 | 0.00 | 82 | 1024.4 |
| 20260501222522 | 64 | 82 | 3.5 | 7.0 | 0.00 | 0.00 | 0.00 | 82 | 1024.4 |
| 20260501222021 | 64 | 84 | 5.2 | 7.0 | 0.00 | 0.00 | 0.00 | 82 | 1024.3 |
| 20260501221522 | 64 | 62 | 5.2 | 7.0 | 0.00 | 0.00 | 0.00 | 83 | 1024.2 |
| 20260501221022 | 64 | 69 | 4.3 | 7.0 | 0.00 | 0.00 | 0.00 | 84 | 1024.3 |
| 20260501220541 | 64 | 60 | 5.2 | 7.8 | 0.00 | 0.00 | 0.00 | 84 | 1024.3 |
| 20260501220445 | 63 | 68 | 6.1 | 7.8 | 0.00 | 0.00 | 0.00 | 85 | 1024.3 |
| 20260501215521 | 63 | 63 | 4.3 | 5.2 | 0.00 | 0.00 | 0.00 | 85 | 1024.4 |
| 20260501215024 | 64 | 29 | 3.5 | 5.2 | 0.00 | 0.00 | 0.00 | 86 | 1024.4 |
| 20260501214806 | 63 | 34 | 3.5 | 7.0 | 0.00 | 0.00 | 0.00 | 86 | 1024.5 |
| 20260501214022 | 63 | 57 | 5.2 | 7.0 | 0.00 | 0.00 | 0.00 | 87 | 1024.5 |
| 20260501213522 | 63 | 53 | 3.5 | 7.8 | 0.00 | 0.00 | 0.00 | 88 | 1024.4 |
| 20260501213021 | 63 | 53 | 4.3 | 8.7 | 0.00 | 0.00 | 0.00 | 88 | 1024.4 |
| 20260501212811 | 63 | 52 | 5.2 | 8.7 | 0.00 | 0.00 | 0.00 | 88 | 1024.4 |
| 20260501212021 | 63 | 69 | 6.1 | 10.4 | 0.00 | 0.00 | 0.00 | 88 | 1024.5 |
| 20260501211522 | 64 | 62 | 5.2 | 10.4 | 0.00 | 0.00 | 0.00 | 88 | 1024.5 |
| 20260501211021 | 64 | 68 | 7.8 | 9.6 | 0.00 | 0.00 | 0.00 | 88 | 1024.4 |
| 20260501210811 | 64 | 84 | 5.2 | 8.7 | 0.00 | 0.00 | 0.00 | 87 | 1024.5 |
| 20260501210021 | 64 | 88 | 5.2 | 7.8 | 0.00 | 0.00 | 0.00 | 87 | 1024.4 |
| 20260501205521 | 64 | 42 | 6.1 | 9.6 | 0.00 | 0.00 | 0.00 | 87 | 1024.4 |
| 20260501205305 | 64 | 58 | 7.0 | 9.6 | 0.00 | 0.00 | 0.00 | 87 | 1024.5 |
| 20260501204522 | 64 | 68 | 5.2 | 10.4 | 0.00 | 0.00 | 0.00 | 87 | 1024.5 |
| 20260501204021 | 64 | 54 | 6.1 | 10.4 | 0.00 | 0.00 | 0.00 | 87 | 1024.5 |
| 20260501203521 | 64 | 59 | 5.2 | 8.7 | 0.00 | 0.00 | 0.00 | 87 | 1024.5 |
| 20260501203022 | 64 | 56 | 6.1 | 8.7 | 0.00 | 0.00 | 0.00 | 86 | 1024.3 |
| 20260501202521 | 64 | 43 | 5.2 | 11.3 | 0.00 | 0.00 | 0.00 | 86 | 1024.3 |
| 20260501202021 | 64 | 80 | 6.1 | 11.3 | 0.00 | 0.00 | 0.00 | 86 | 1024.3 |
| 20260501201525 | 64 | 107 | 7.8 | 11.3 | 0.00 | 0.00 | 0.00 | 86 | 1024.3 |
| 20260501201302 | 64 | 62 | 7.0 | 9.6 | 0.00 | 0.00 | 0.00 | 86 | 1024.2 |
| 20260501200521 | 64 | 72 | 5.2 | 7.8 | 0.00 | 0.00 | 0.00 | 86 | 1024.2 |
| 20260501200021 | 64 | 58 | 6.1 | 9.6 | 0.00 | 0.00 | 0.00 | 86 | 1024.2 |
| 20260501195521 | 64 | 37 | 7.0 | 9.6 | 0.00 | 0.00 | 0.00 | 87 | 1024.0 |